Flight Track Log - Related Links

Times and Time Zones

All times are in EDT time to prevent confusion due to time zone crossing. See the SWA407 flight status page for this flight to view local times or setup timezone preferences in your user account.

Time Position Orientation Groundspeed Altitude Reporting Facility
EDT Latitude Longitude Course Direction KTS MPH feet Rate Location/Type
Sun 03:21:38 PM 28.4167 -81.3000 210° Southwest 160 184 800  Level Orlando TRACON
Sun 03:22:44 PM 28.3667 -81.3333 210° Southwest 222 255 3,300 2,476 Climbing Orlando TRACON
Sun 03:23:44 PM 28.3333 -81.4000 240° Southwest 258 297 6,000 3,600 Climbing Orlando TRACON
Sun 03:24:44 PM 28.3333 -81.4833 270° West 276 318 10,500 3,276 Climbing Orlando TRACON
Sun 03:26:27 PM 28.4744 -81.5158 349° North 303 349 14,900 2,834 Climbing Jacksonville Center
Sun 03:27:27 PM 28.5769 -81.5356 350° North 336 387 18,200 3,300 Climbing Jacksonville Center
Sun 03:28:27 PM 28.6814 -81.5581 349° North 362 417 21,500 2,700 Climbing Jacksonville Center
Sun 03:29:27 PM 28.7944 -81.5825 349° North 387 445 23,600 2,250 Climbing Jacksonville Center
Sun 03:30:27 PM 28.9094 -81.6069 349° North 405 466 26,000 1,200 Climbing Jacksonville Center
Sun 03:31:27 PM 29.0244 -81.6317 349° North 412 474 26,000  Level Jacksonville Center
Sun 03:32:28 PM 29.1417 -81.6586 349° North 418 481 26,000 100 Level Jacksonville Center
Sun 03:33:27 PM 29.2567 -81.6858 348° North 418 481 26,200 1,261 Climbing Jacksonville Center
Sun 03:34:27 PM 29.3758 -81.7106 350° North 423 487 28,500 2,777 Climbing Jacksonville Center
Sun 03:35:28 PM 29.4931 -81.7353 350° North 428 493 31,800 3,150 Climbing Jacksonville Center
Sun 03:36:27 PM 29.6017 -81.7581 350° North 421 484 34,800 1,613 Climbing Jacksonville Center
Sun 03:37:27 PM 29.7083 -81.7831 348° North 399 459 35,000 100 Climbing Jacksonville Center
Sun 03:38:27 PM 29.8192 -81.8058 350° North 394 453 35,000  Level Jacksonville Center
Sun 03:39:28 PM 29.9342 -81.8236 352° North 394 453 35,000  Level Jacksonville Center
Sun 03:40:27 PM 30.0636 -81.8150 North 414 476 35,000  Level Jacksonville Center
Sun 03:41:27 PM 30.1825 -81.8111 North 426 490 35,000  Level Jacksonville Center
Sun 03:42:27 PM 30.3017 -81.8122 360° North 421 484 35,000  Level Jacksonville Center
Sun 03:43:27 PM 30.4164 -81.8061 North 416 479 35,000  Level Jacksonville Center
Sun 03:44:27 PM 30.5353 -81.8047 North 421 484 35,000  Level Jacksonville Center
Sun 03:45:27 PM 30.6464 -81.8350 347° North 404 465 35,000  Level Jacksonville Center
Sun 03:46:27 PM 30.7428 -81.8822 337° Northwest 391 450 35,000  Level Jacksonville Center
Sun 03:47:28 PM 30.8433 -81.9344 336° Northwest 385 443 35,000  Level Jacksonville Center
Sun 03:48:27 PM 30.9397 -81.9819 337° Northwest 385 443 35,000  Level Jacksonville Center
Sun 03:49:27 PM 31.0383 -82.0342 336° Northwest 379 436 35,000  Level Jacksonville Center
Sun 03:50:28 PM 31.1367 -82.0867 335° Northwest 379 436 35,000  Level Jacksonville Center
Sun 03:51:28 PM 31.2414 -82.1394 337° Northwest 391 450 35,000  Level Jacksonville Center
Sun 03:53:46 PM 31.4811 -82.2614 337° Northwest 397 457 35,000  Level Atlanta Center
Sun 03:54:46 PM 31.5842 -82.3128 337° Northwest 402 463 35,000  Level Atlanta Center
Sun 03:55:46 PM 31.6894 -82.3694 335° Northwest 402 463 35,000  Level Atlanta Center
Sun 03:56:46 PM 31.7903 -82.4239 335° Northwest 402 463 35,000  Level Atlanta Center
Sun 03:57:46 PM 31.8933 -82.4758 337° Northwest 402 463 35,000  Level Atlanta Center
Sun 03:58:46 PM 31.9961 -82.5303 336° Northwest 402 463 35,000  Level Atlanta Center
Sun 03:59:46 PM 32.0969 -82.5850 335° Northwest 402 463 35,000 -500 Level Atlanta Center
Sun 04:00:46 PM 32.1772 -82.6694 318° Northwest 397 457 34,000 -1,000 Descending Atlanta Center
Sun 04:01:46 PM 32.2575 -82.7567 317° Northwest 392 451 33,000 -1,000 Descending Atlanta Center
Sun 04:02:46 PM 32.3356 -82.8417 317° Northwest 387 445 32,000 -1,000 Descending Atlanta Center
Sun 04:03:46 PM 32.4094 -82.9194 318° Northwest 375 432 31,000 -1,000 Descending Atlanta Center
Sun 04:04:46 PM 32.4853 -83.0047 317° Northwest 375 432 30,000 -1,000 Descending Atlanta Center
Sun 04:05:46 PM 32.5611 -83.0850 318° Northwest 375 432 29,000 -1,000 Descending Atlanta Center
Sun 04:06:46 PM 32.6369 -83.1681 317° Northwest 370 426 28,000 -1,000 Descending Atlanta Center
Sun 04:07:46 PM 32.7083 -83.2489 316° Northwest 365 420 27,000 -1,400 Descending Atlanta Center
Sun 04:08:46 PM 32.7756 -83.3250 316° Northwest 349 402 25,200 -2,000 Descending Atlanta Center
Sun 04:09:46 PM 32.8450 -83.3958 319° Northwest 338 389 23,000 -2,200 Descending Atlanta Center
Sun 04:10:46 PM 32.9142 -83.4772 315° West 338 389 20,800 -2,200 Descending Atlanta Center
Sun 04:11:46 PM 32.9856 -83.5533 318° Northwest 338 389 18,600 -2,150 Descending Atlanta Center
Sun 04:12:46 PM 33.0525 -83.6300 316° Northwest 338 389 16,500 -2,100 Descending Atlanta Center
Sun 04:13:46 PM 33.1111 -83.6917 319° Northwest 324 373 14,400 -2,278 Descending Atlanta Center
Sun 04:14:05 PM 33.1333 -83.7167 317° Northwest 313 360 13,500 -1,747 Descending Atlanta TRACON
Sun 04:15:05 PM 33.2000 -83.8000 314° West 300 345 12,100 -750 Descending Atlanta TRACON
Sun 04:16:05 PM 33.2500 -83.8667 312° West 276 318 12,000 -594 Descending Atlanta TRACON
Sun 04:16:46 PM 33.2828 -83.9097 312° West 285 328 11,100 -1,485 Descending Atlanta Center
Sun 04:17:46 PM 33.3308 -83.9767 311° West 268 308 9,500 -1,550 Descending Atlanta Center
Sun 04:18:46 PM 33.4019 -84.0064 341° North 259 298 8,000 -1,200 Descending Atlanta Center
Sun 04:19:46 PM 33.4625 -84.0314 341° North 248 285 7,100 -1,050 Descending Atlanta Center
Sun 04:20:46 PM 33.5186 -84.0561 340° North 225 259 5,900 -1,150 Descending Atlanta Center
Sun 04:21:46 PM 33.5689 -84.0911 330° Northwest 211 243 4,800 -1,100 Descending Atlanta Center
Sun 04:22:46 PM 33.5875 -84.1561 289° West 197 227 3,700 -1,063 Descending Atlanta Center
Sun 04:23:05 PM 33.6000 -84.1833 299° West 212 244 3,400 -494 Descending Atlanta TRACON
Sun 04:24:11 PM 33.6333 -84.2333 309° West 185 213 3,000 -238 Descending Atlanta TRACON
Sun 04:25:11 PM 33.6333 -84.3000 270° West 177 204 2,900 -400 Descending Atlanta TRACON
Sun 04:26:11 PM 33.6333 -84.3500 270° West 146 168 2,200 -700 Descending Atlanta TRACON
Sun 04:27:11 PM 33.6333 -84.4000 270° West 133 153 1,500 -700 Descending Atlanta TRACON
Sun 04:29:00 PM 33.6333 -84.4167 270° West  Level FlightAware Approximate
Sun 04:36:00 PM 33.6367 -84.4279 270° West  Level Estimated

Login

Don't have an account? Register now (free) for customized features, flight alerts, and more!